Home > Time Zones > World Clock > Weather > Japan > Kyoto > Past weeks

Flag for Japan Weather past 2 weeks in Kyoto, Japan

Now
63 °F

Mild.


Feels Like: 63 °F
Forecast: 48 / 63 °F
Wind: 9 mph from Southwest

Location: Osaka

Current Time: Apr 1, 2015 at 3:11:54 AM

Latest Report: Apr 1, 2015 at 2:00 AM


Visibility: N/A

Pressure: 29.98 "Hg

Humidity: 73%

Dew point: 54 °F

Location of KyotoLocation

Historic Weather in Kyoto — Graph

°F

Kyoto temperature yesterday

Maximum temperature yesterday: 72 °F (at 2:00 PM)
Minimum temperature yesterday: 50 °F (at 5:00 AM)
Average temperature yesterday: 62 °F

Past Weeks' High & Low Weather Summary

 TemperatureHumidityPressure
High72 °F (Mar 31, 2:00 PM)99% (Mar 19, 3:00 AM)30.58 "Hg (Mar 19, 3:00 AM)
Low39 °F (Mar 25, 6:00 AM)15% (Mar 27, 4:00 PM)29.72 "Hg (Mar 19, 1:00 PM)
Average55 °F61%30.13 "Hg
* Reported Mar 17 2:00 AM — Apr 1 2:00 AM, Kyoto, Weather by CustomWeather, © 2015

Note: Actual official high and low records may vary slightly from our data, if they occured in-between our weather recording intervals... More about our weather records

Advertising

Kyoto weather history for previous 24 hours

 ConditionsComfort  
Time TempWeatherWind HumidityBarometerVisibility
2:00 AM
Wed, Apr 1
63 °FMild.9 mph73%29.98 "HgN/A
1:00 AM63 °FMild.7 mph73%30.00 "HgN/A
12:00 AM64 °FMild.5 mph70%30.01 "HgN/A
11:00 PM
Tue, Mar 31
65 °FMild.3 mph69%30.02 "HgN/A
10:00 PM65 °FMild.2 mph69%30.03 "HgN/A
9:00 PM65 °FOvercast.3 mph72%30.04 "Hg9 mi
8:00 PM65 °FMild.3 mph70%30.04 "HgN/A
7:00 PM66 °FMild.8 mph69%30.03 "HgN/A
6:00 PM67 °FOvercast.8 mph67%30.03 "Hg12 mi
5:00 PM68 °FMild.8 mph62%30.03 "HgN/A
4:00 PM69 °FMild.8 mph62%30.03 "HgN/A
3:00 PM71 °FPassing clouds.9 mph53%30.03 "Hg9 mi
2:00 PM72 °FMild.12 mph51%30.05 "HgN/A
1:00 PM71 °FMild.7 mph50%30.09 "HgN/A
12:00 PM71 °FPassing clouds.3 mph48%30.12 "Hg9 mi
11:00 AM67 °FMild.3 mph47%30.14 "HgN/A
10:00 AM65 °FMild.3 mph48%30.16 "HgN/A
9:00 AM60 °FSunny.3 mph58%30.17 "Hg6 mi
8:00 AM55 °FCool.3 mph66%30.18 "HgN/A
7:00 AM52 °FCool.5 mph76%30.19 "HgN/A
6:00 AM51 °FPassing clouds.3 mph78%30.18 "Hg6 mi
5:00 AM50 °FCool.No wind77%30.16 "HgN/A
4:00 AM52 °FCool.3 mph75%30.16 "HgN/A
3:00 AM52 °FClear.3 mph75%30.15 "Hg6 mi
Weather by CustomWeather, © 2015

See weather overviewHow to use our weather pages